TimeEDT,TemperatureF,Dew PointF,Humidity,Sea Level PressureIn,VisibilityMPH,Wind Direction,Wind SpeedMPH,Gust SpeedMPH,PrecipitationIn,Events,Conditions,WindDirDegrees,DateUTC
12:53 AM,64.9,61.0,87,30.17,10.0,Calm,Calm,-,N/A,,Clear,0,2013-08-27 04:53:00
1:53 AM,64.0,61.0,90,30.15,10.0,WSW,4.6,-,N/A,,Clear,240,2013-08-27 05:53:00
2:53 AM,64.9,62.1,90,30.14,10.0,SW,4.6,-,N/A,,Mostly Cloudy,230,2013-08-27 06:53:00
3:53 AM,63.0,60.1,90,30.12,10.0,WSW,5.8,-,N/A,,Clear,240,2013-08-27 07:53:00
4:53 AM,64.0,60.1,87,30.12,10.0,WSW,5.8,-,N/A,,Clear,250,2013-08-27 08:53:00
5:53 AM,63.0,60.1,90,30.11,10.0,WSW,5.8,-,N/A,,Clear,240,2013-08-27 09:53:00
6:53 AM,62.1,60.1,93,30.12,10.0,SW,5.8,-,N/A,,Clear,230,2013-08-27 10:53:00
7:53 AM,64.9,61.0,87,30.12,10.0,WSW,5.8,-,N/A,,Clear,240,2013-08-27 11:53:00
8:53 AM,69.1,64.0,84,30.11,10.0,West,5.8,-,N/A,,Clear,260,2013-08-27 12:53:00
9:53 AM,77.0,66.0,69,30.10,10.0,West,5.8,-,N/A,,Clear,260,2013-08-27 13:53:00
10:53 AM,80.1,66.9,64,30.10,10.0,West,5.8,-,N/A,,Clear,260,2013-08-27 14:53:00
11:53 AM,82.9,66.9,58,30.09,10.0,Variable,3.5,-,N/A,,Clear,0,2013-08-27 15:53:00
12:53 PM,84.9,66.9,55,30.07,10.0,North,4.6,-,N/A,,Clear,10,2013-08-27 16:53:00
1:53 PM,87.1,66.0,49,30.06,10.0,NW,3.5,-,N/A,,Clear,320,2013-08-27 17:53:00
2:53 PM,88.0,66.0,48,30.04,10.0,NNW,4.6,-,N/A,,Partly Cloudy,340,2013-08-27 18:53:00
3:53 PM,88.0,66.0,48,30.01,10.0,WSW,3.5,-,N/A,,Scattered Clouds,250,2013-08-27 19:53:00
4:53 PM,88.0,66.9,49,30.01,10.0,WSW,6.9,-,N/A,,Mostly Cloudy,250,2013-08-27 20:53:00
5:53 PM,84.9,68.0,57,30.02,10.0,West,5.8,-,N/A,,Partly Cloudy,260,2013-08-27 21:53:00
6:53 PM,82.9,70.0,65,30.01,10.0,SW,4.6,-,N/A,,Clear,220,2013-08-27 22:53:00
7:53 PM,80.1,70.0,71,30.02,10.0,Calm,Calm,-,N/A,,Clear,0,2013-08-27 23:53:00
8:53 PM,75.9,71.1,85,30.02,9.0,Calm,Calm,-,N/A,,Clear,0,2013-08-28 00:53:00
9:53 PM,75.0,71.1,87,30.02,8.0,SW,4.6,-,N/A,,Clear,230,2013-08-28 01:53:00
10:53 PM,73.9,71.1,91,30.03,7.0,SW,4.6,-,N/A,,Clear,220,2013-08-28 02:53:00
11:53 PM,75.0,70.0,84,30.03,9.0,West,4.6,-,N/A,,Clear,260,2013-08-28 03:53:00